{"data":{"norad_id":66613,"intl_designator":"2025-270AB","name":"STARLINK-36037","alt_names":[],"object_type":"PAYLOAD","status":"ACTIVE","operator":null,"country":"US","launch_date":"2025-11-22","launch_site_code":"AFETR","launch_vehicle":null,"mission":null,"orbit_class":"UNKNOWN","rcs_meters":null,"size_class":null,"mass_kg":null,"dimensions":null,"purposes":["comms"],"wikipedia_slug":null,"has_3d_model":false,"image_url":null,"decayed_at":null,"tle_current":{"epoch":"2026-05-24T22:03:07.019136Z","epoch_age_seconds":78139,"freshness":"FRESH","line1":"1 66613U 25270AB  26144.91883124  .00015603  00000+0  57502-3 0  9997","line2":"2 66613  43.0010 345.7263 0000914 252.5904 107.4848 15.27597120 29364","mean_motion":15.2759712,"eccentricity":9.14e-5,"inclination_deg":43.001,"raan_deg":345.7263,"arg_perigee_deg":252.5904,"mean_anomaly_deg":107.4848,"bstar":0.00057502,"rev_number":2936,"period_min":94.26569225268,"perigee_km":482.37072535579,"apogee_km":483.62494080327,"semimajor_km":6861.1348330795,"source":"CELESTRAK","updated_at":"2026-05-25T13:38:21.292718Z"}}}